STARLINK-1351 (45697 NORAD) Tracking and Keplerian Element Data

This shows tracking and keplerian element data for the satellite.

Feedback or suggestion? Click here.




ElementValue
Catalog45697
NameSTARLINK-1351
Epoch Orbit657
Epoch Day192.16668981
Epoch Year2020
RAAN352.3223
Inclination53.0014
Eccentricity0.0001203
Argument of Perigee71.1962
Mean Anonmoly90.1167
Mean Motion15.6273476
Decay Rate-0.00014256
L11 45697U 20035AS 20192.16668981 -.00014256 00000-0 -15023-3 0 9994
L22 45697 53.0014 352.3223 0001203 71.1962 90.1167 15.62734760 6571

Live tracking and technical data element details for STARLINK-1351 (NORAD 45697). STARLINK-1351 can be tracked NOW for your location showing map with azimuth and elevation plus other details from your city location.

Track the satellite on the map from your city or location and see movement details for azimuth, elevation, latitude, longitude, range, height, and movement on the map or in text.







IsCatalogInMostPopularTable: catalog: 45697, numindb: 5
Update: records affected: 1



GetName: 45697 STARLINK-1351

Hit Count: updated at: Fri, 10 Jul 2020 15:58:46 GMT